Wind_Speed
15 14 15 15 15 16 17 18 19 20 20 19 19 19 20 20 20 20 21 21 22 22 22 23 24 25 24 25 25 25 25 26 27 27 28 28 28 28 28 28 29 29 29
15 15 15 15 16 17 18 19 20 20 19 19 19 18 18 19 19 19 20 20 21 22 22 22 23 24 24 25 25 25 25 26 27 27 27 27 28 28 28 28 28 28 29
15 16 17 17 18 19 19 20 20 20 19 19 19 18 18 18 18 19 19 19 20 20 21 22 23 24 24 25 25 26 26 26 27 26 26 26 27 27 28 28 28 28 28
18 18 18 19 19 20 20 20 19 19 19 19 19 18 17 17 18 18 18 18 19 20 21 22 22 23 24 25 25 26 27 27 27 26 26 26 27 27 27 27 28 28 28
19 20 20 20 21 21 21 20 19 18 18 18 17 17 17 17 17 18 18 19 20 20 21 22 22 23 25 25 26 27 27 27 27 27 26 25 25 26 26 27 28 27 27
20 21 21 21 21 20 19 19 18 18 17 17 17 18 18 18 18 18 19 20 20 21 21 21 23 24 25 25 25 26 26 27 27 26 25 25 25 25 26 27 27 28 28
21 22 22 21 20 19 19 19 18 18 18 18 18 18 18 18 18 18 19 19 19 20 20 21 22 23 23 23 24 25 25 25 25 25 25 26 26 27 27 27 28 28 28
21 21 20 20 19 18 19 19 19 18 18 19 19 18 18 18 18 18 18 18 19 19 20 20 21 21 21 22 23 24 24 24 24 24 25 25 25 26 26 26 27 28 29
21 21 20 20 19 19 20 20 20 19 19 19 19 18 18 18 18 17 18 19 19 19 20 20 20 21 21 21 22 23 24 23 24 24 24 24 24 24 25 26 26 26 27
21 21 21 20 20 20 20 20 20 19 19 19 19 19 18 18 18 17 18 19 19 19 19 20 21 21 21 22 22 23 23 23 24 24 24 24 24 24 24 24 24 24 25
21 21 20 20 21 21 21 21 20 20 20 20 19 20 19 19 18 18 19 19 18 19 19 20 20 20 21 22 22 22 22 23 23 23 24 23 23 23 23 24 24 24 24
20 20 20 21 22 22 22 21 20 20 20 20 20 20 20 19 18 18 18 18 18 19 19 20 19 20 21 21 21 21 21 21 22 22 21 22 22 22 23 23 24 24 24
20 21 21 21 22 23 23 22 21 20 20 19 20 20 20 19 19 18 18 18 19 19 19 20 21 21 21 20 20 21 21 21 20 20 20 21 21 22 22 22 22 23 23
20 21 21 21 22 22 22 22 21 20 20 20 20 20 20 19 19 19 18 19 20 20 20 21 21 21 20 20 20 20 20 20 19 19 19 19 20 20 20 20 21 21 21
20 21 21 21 21 21 22 21 21 21 21 21 21 20 20 19 18 18 19 20 20 20 20 20 20 21 21 20 20 20 19 19 18 18 18 19 19 19 20 20 19 19 19
20 20 21 21 21 22 22 22 22 22 22 21 21 20 20 19 19 19 20 20 20 20 20 20 20 20 20 20 19 19 18 18 17 18 18 18 19 18 18 18 18 18 19
20 20 21 21 21 22 23 23 23 23 22 21 20 20 19 19 19 19 20 20 20 20 21 20 20 20 19 19 18 17 17 17 17 17 17 17 17 17 17 17 17 18 18
20 21 21 20 21 21 22 23 23 23 22 21 21 20 19 19 19 19 20 20 20 20 21 20 20 19 18 18 18 17 17 17 18 17 17 17 16 17 17 17 17 17 17
20 20 20 20 21 22 22 23 23 23 22 21 20 20 20 20 19 19 20 20 20 20 20 20 20 20 19 19 18 18 17 17 17 17 17 17 17 16 17 17 17 17 16
20 20 20 21 21 22 22 22 22 22 22 21 20 20 20 20 20 20 20 20 20 20 20 20 20 20 19 19 19 18 18 18 17 17 16 16 16 16 16 16 16 16 15
20 20 20 21 21 22 22 22 22 22 22 21 21 21 20 19 19 20 20 20 20 19 19 20 20 19 19 19 19 18 17 17 17 16 16 16 16 15 16 15 15 14 14
20 20 21 21 22 22 22 23 23 22 22 22 22 21 20 20 19 20 20 20 19 19 19 19 19 19 19 19 18 18 17 17 16 16 16 15 15 15 15 14 14 14 14
21 21 21 22 22 22 22 23 23 23 23 22 22 21 20 20 20 20 20 20 20 20 19 19 19 19 19 19 19 18 17 17 16 16 15 15 14 14 14 14 14 14 14
21 21 21 22 22 23 23 23 23 23 22 22 21 20 20 20 20 20 20 20 20 20 19 19 19 19 19 19 18 18 17 17 16 15 15 14 14 13 14 14 14 14 14
21 21 21 21 21 22 23 23 23 22 22 21 21 20 20 20 20 20 20 20 20 19 19 19 19 19 19 19 19 18 17 16 16 15 15 15 15 14 14 15 15 14 13
21 21 21 21 22 22 23 23 22 22 21 21 21 21 21 20 20 20 20 20 20 19 19 18 18 19 18 18 18 18 17 16 15 15 15 15 15 15 15 15 15 14 13
Wind_Direction
330 328 325 320 318 315 311 310 309 309 308 304 299 294 291 287 284 281 277 276 274 274 275 275 274 273 274 273 272 274 277 278 279 279 275 271 267 265 264 264 263 262 261
334 332 329 326 323 321 317 315 314 313 310 307 304 300 296 290 285 283 283 280 278 278 277 276 275 273 274 274 274 275 278 280 281 281 278 273 268 266 264 265 265 264 262
334 332 331 328 325 322 320 318 318 315 313 310 306 302 298 294 290 289 286 284 283 281 280 279 278 276 275 275 276 278 279 281 283 282 278 275 271 268 266 265 265 264 263
336 335 332 328 326 323 322 321 318 316 314 311 308 305 301 296 291 291 289 288 287 285 283 282 281 278 278 278 278 279 280 281 281 280 279 276 273 270 269 266 265 264 262
335 334 331 327 325 324 323 322 321 317 315 313 311 308 305 302 297 295 294 292 291 288 285 283 281 281 280 280 281 280 280 281 282 280 278 277 275 272 270 267 264 261 260
332 331 328 327 325 325 326 326 324 321 319 319 314 310 307 304 301 300 298 297 296 293 290 286 284 284 283 282 282 282 282 283 284 282 278 277 275 274 272 268 266 264 263
329 329 329 327 326 328 328 329 327 324 322 319 317 313 310 306 304 303 301 300 300 296 293 290 288 288 286 286 285 286 285 285 284 282 278 277 276 276 274 270 268 268 266
329 329 331 331 329 330 330 330 328 325 323 322 321 319 316 312 309 307 304 303 303 301 296 294 293 292 290 290 289 289 288 287 285 284 281 280 280 278 275 274 272 270 270
330 331 332 332 332 330 328 327 327 325 324 323 323 322 320 318 315 311 308 307 306 305 301 298 297 296 293 291 290 289 289 289 289 287 285 284 280 279 278 275 272 271 270
328 330 330 329 329 329 329 329 329 326 324 323 321 322 320 318 316 314 311 310 309 308 306 302 299 298 296 293 293 293 293 290 290 290 287 284 281 280 280 278 275 274 273
324 327 327 328 330 330 330 331 330 328 326 325 323 322 322 321 319 316 314 312 311 311 311 308 303 301 299 297 296 296 295 293 291 290 289 286 284 282 282 280 277 276 276
323 324 325 328 330 330 330 329 327 326 326 326 325 324 323 322 322 320 317 316 315 315 314 312 309 306 304 301 299 299 298 296 294 292 291 288 286 286 285 283 281 280 280
323 324 326 328 329 329 330 330 327 325 326 326 325 325 324 324 323 322 322 320 317 317 316 316 314 311 308 305 304 303 302 300 296 294 294 292 289 287 286 285 283 282 281
320 322 324 326 327 327 328 329 328 326 325 324 325 326 325 323 323 322 321 321 319 317 317 318 317 314 310 309 309 307 304 303 299 297 297 296 293 290 289 288 286 284 282
318 320 323 324 326 326 327 328 328 327 325 325 325 325 325 325 324 321 319 319 320 320 319 319 319 317 314 313 313 310 307 304 302 300 299 298 296 292 289 288 287 284 282
316 319 321 323 324 326 326 327 328 328 327 326 324 323 323 324 324 322 321 320 320 320 321 322 321 320 317 315 314 311 309 306 304 302 301 301 300 297 292 288 287 285 283
315 317 319 320 322 324 325 326 326 327 328 327 326 325 324 324 324 324 323 323 323 321 321 321 321 321 319 316 312 309 309 309 307 307 306 304 301 300 296 292 289 286 284
313 316 319 321 322 324 326 327 327 327 327 327 326 324 324 324 324 325 324 324 323 323 322 322 321 320 318 317 315 310 308 308 306 305 305 304 302 299 298 295 293 291 289
312 316 317 320 322 323 325 326 327 327 326 325 324 323 322 323 324 325 325 324 322 321 320 321 322 322 320 318 317 314 309 308 306 305 305 306 304 302 301 300 298 297 293
310 314 316 317 319 321 323 324 326 327 326 325 324 323 322 322 323 325 326 326 326 325 324 323 323 323 322 320 320 318 315 313 311 308 307 307 306 305 304 302 300 298 297
308 311 314 317 318 320 322 324 325 326 326 326 325 325 324 324 325 326 327 327 328 328 327 326 326 325 325 324 323 322 320 318 315 312 309 306 306 305 305 302 301 300 299
306 310 313 316 318 319 321 322 322 323 324 325 324 323 323 323 324 325 326 327 327 328 327 327 327 327 327 326 325 323 321 322 322 319 315 312 309 307 306 304 303 302 300
303 306 310 313 316 316 317 319 321 322 323 324 323 322 322 322 323 324 325 326 326 326 326 327 328 328 328 328 328 327 325 323 323 324 322 320 316 315 312 309 307 306 303
300 303 307 311 314 316 318 320 321 322 323 325 325 325 324 323 324 324 325 325 326 327 327 327 327 328 329 328 330 329 327 325 324 323 323 322 319 317 316 313 310 308 307
298 302 306 310 313 316 318 318 318 319 321 323 323 323 325 325 325 325 325 325 325 326 325 326 327 329 329 329 330 331 329 326 324 324 322 321 320 318 317 317 314 312 309
298 301 305 308 311 313 315 315 315 317 319 320 321 322 323 324 325 325 325 326 326 326 325 325 326 328 329 330 331 331 331 330 326 324 324 322 319 317 316 317 318 315 313
Height
5757 5754 5752 5750 5748 5745 5743 5741 5739 5736 5734 5731 5729 5728 5726 5724 5723 5722 5722 5722 5721 5721 5720 5720 5719 5718 5717 5717 5716 5716 5715 5714 5713 5712 5710 5709 5708 5709 5709 5709 5710 5711 5711
5755 5752 5750 5747 5745 5743 5740 5737 5734 5732 5729 5726 5724 5722 5721 5719 5718 5717 5716 5715 5715 5714 5713 5713 5712 5711 5710 5710 5709 5708 5707 5706 5704 5703 5701 5700 5700 5700 5700 5700 5701 5701 5702
5753 5750 5748 5745 5742 5740 5737 5733 5730 5727 5724 5722 5720 5718 5716 5714 5713 5712 5711 5710 5709 5708 5707 5706 5705 5704 5704 5703 5702 5701 5699 5698 5696 5695 5693 5692 5692 5691 5691 5691 5692 5692 5693
5752 5748 5745 5742 5739 5736 5732 5729 5725 5722 5720 5717 5715 5713 5711 5709 5708 5706 5705 5704 5703 5702 5700 5699 5698 5697 5696 5696 5695 5693 5691 5690 5688 5686 5685 5684 5684 5683 5682 5683 5683 5683 5684
5750 5746 5743 5739 5735 5732 5728 5724 5721 5718 5715 5713 5711 5709 5707 5705 5703 5701 5700 5698 5697 5695 5694 5692 5691 5690 5689 5688 5687 5685 5684 5682 5680 5678 5677 5676 5676 5675 5675 5674 5675 5675 5675
5747 5744 5739 5736 5732 5728 5724 5721 5717 5714 5712 5709 5707 5704 5702 5700 5698 5696 5694 5693 5691 5689 5688 5686 5685 5684 5682 5681 5679 5678 5676 5674 5672 5671 5670 5669 5668 5667 5667 5666 5667 5667 5667
5745 5741 5736 5732 5729 5725 5721 5718 5715 5711 5708 5706 5703 5700 5698 5696 5694 5691 5690 5688 5686 5684 5682 5680 5679 5677 5675 5673 5672 5670 5668 5666 5664 5663 5662 5661 5660 5660 5659 5659 5658 5659 5659
5742 5738 5734 5730 5726 5722 5719 5715 5712 5708 5705 5702 5699 5696 5694 5691 5689 5687 5685 5683 5681 5679 5676 5674 5672 5670 5668 5666 5665 5663 5661 5659 5657 5656 5655 5653 5652 5651 5651 5650 5650 5650 5650
5739 5735 5731 5727 5723 5720 5716 5712 5709 5705 5702 5699 5696 5693 5690 5688 5685 5682 5680 5678 5676 5673 5671 5669 5666 5664 5662 5660 5658 5656 5654 5652 5650 5649 5647 5645 5644 5643 5643 5642 5642 5642 5642
5735 5732 5728 5724 5721 5717 5713 5709 5706 5702 5699 5696 5693 5690 5687 5684 5681 5678 5676 5673 5671 5668 5666 5663 5661 5659 5656 5654 5652 5650 5647 5645 5643 5641 5640 5638 5637 5636 5635 5634 5634 5633 5633
5732 5729 5725 5722 5718 5714 5710 5706 5702 5699 5695 5692 5689 5686 5683 5680 5677 5674 5671 5669 5666 5663 5661 5658 5655 5653 5650 5647 5645 5643 5640 5638 5636 5634 5632 5630 5629 5628 5627 5626 5626 5626 5625
5729 5726 5722 5719 5715 5711 5707 5703 5699 5695 5692 5688 5685 5682 5679 5676 5673 5670 5667 5664 5661 5659 5656 5653 5650 5647 5644 5641 5639 5636 5634 5631 5629 5627 5625 5623 5622 5621 5620 5619 5618 5617 5617
5726 5722 5719 5715 5711 5707 5703 5699 5695 5692 5688 5685 5682 5678 5675 5672 5669 5666 5663 5660 5657 5654 5651 5648 5644 5641 5638 5635 5633 5630 5627 5625 5623 5621 5619 5617 5615 5614 5613 5612 5611 5610 5609
5721 5718 5715 5711 5708 5704 5700 5696 5692 5688 5685 5681 5678 5674 5671 5668 5664 5662 5659 5656 5653 5650 5646 5643 5639 5636 5633 5630 5627 5624 5621 5619 5617 5615 5613 5611 5609 5608 5606 5605 5604 5603 5602
5717 5714 5711 5707 5704 5700 5696 5692 5688 5685 5681 5677 5674 5670 5667 5664 5661 5658 5654 5651 5648 5645 5641 5638 5634 5631 5627 5624 5621 5618 5616 5614 5611 5609 5607 5605 5603 5601 5600 5599 5598 5596 5596
5713 5710 5707 5703 5700 5696 5692 5689 5685 5681 5677 5674 5670 5666 5663 5660 5656 5653 5650 5647 5643 5640 5636 5633 5629 5626 5623 5620 5617 5614 5611 5609 5606 5604 5601 5599 5597 5596 5594 5593 5592 5591 5590
5708 5706 5702 5699 5696 5692 5688 5685 5681 5678 5673 5669 5666 5662 5659 5655 5652 5649 5646 5642 5639 5635 5631 5628 5625 5621 5618 5615 5612 5609 5606 5604 5601 5599 5597 5594 5592 5590 5589 5587 5586 5585 5584
5704 5701 5698 5694 5691 5688 5684 5681 5677 5673 5670 5666 5662 5658 5655 5652 5648 5645 5641 5638 5634 5630 5626 5623 5620 5616 5613 5610 5607 5604 5602 5599 5597 5594 5592 5589 5587 5585 5584 5582 5580 5579 5578
5699 5696 5693 5690 5687 5684 5680 5677 5673 5669 5665 5662 5658 5654 5651 5648 5644 5641 5637 5633 5630 5626 5622 5619 5615 5612 5609 5606 5603 5600 5597 5594 5592 5589 5587 5585 5583 5580 5579 5577 5575 5573 5572
5694 5692 5689 5686 5683 5680 5676 5673 5669 5665 5661 5657 5654 5650 5647 5643 5640 5637 5633 5629 5626 5622 5618 5615 5611 5608 5605 5601 5598 5595 5592 5590 5587 5585 5582 5580 5578 5576 5574 5572 5570 5569 5567
5690 5687 5684 5681 5678 5675 5672 5668 5664 5661 5657 5653 5650 5646 5642 5639 5636 5633 5629 5626 5622 5618 5615 5611 5607 5604 5601 5597 5594 5591 5588 5585 5583 5580 5578 5575 5573 5571 5569 5567 5565 5564 5562
5685 5682 5679 5677 5674 5670 5667 5664 5660 5656 5652 5649 5645 5642 5638 5635 5632 5628 5625 5622 5618 5614 5611 5607 5604 5600 5597 5593 5590 5587 5584 5582 5579 5576 5574 5571 5569 5567 5564 5563 5561 5559 5558
5679 5677 5674 5671 5668 5665 5662 5659 5655 5651 5647 5644 5640 5637 5634 5631 5627 5624 5621 5617 5614 5610 5607 5603 5600 5596 5593 5589 5586 5583 5581 5578 5575 5572 5570 5567 5565 5563 5561 5559 5557 5556 5554
5674 5671 5669 5666 5663 5660 5657 5653 5650 5646 5643 5639 5636 5632 5629 5626 5623 5619 5616 5613 5609 5606 5602 5599 5596 5593 5589 5586 5582 5579 5577 5574 5571 5569 5566 5564 5561 5559 5557 5555 5554 5552 5550
5668 5666 5663 5660 5658 5654 5651 5648 5645 5641 5638 5635 5631 5628 5625 5621 5618 5615 5611 5608 5605 5602 5598 5595 5592 5589 5586 5582 5579 5576 5573 5570 5568 5565 5563 5560 5558 5556 5554 5552 5550 5548 5546
5662 5660 5657 5655 5652 5649 5646 5642 5639 5636 5633 5630 5627 5623 5620 5617 5614 5611 5607 5604 5601 5598 5594 5592 5589 5586 5582 5579 5576 5573 5570 5567 5564 5562 5559 5557 5554 5552 5550 5548 5546 5544 5542